Location: Rounton
(54.4000°N, 1.3500°W)
Time: 01:23:38
(UTC+00:00)

Vanguard 3 - Pass Details

Date: 03 December 2021
Orbit: 508 x 3260 km, 33.3° (Epoch: 19 January)

Event Time Altitude Azimuth Distance (km) Brightness Sun altitude
Exits shadow 03:27:17 16° 194° (SSW) 5,715 11.1 -39.1°
Maximum altitude 03:38:06 26° 156° (SSE) 4,763 11.0 -37.6°
Drops below altitude 10° 03:50:19 10° 109° (ESE) 5,296 11.9 -35.8°
Sets 03:54:49 0° 98° (E) 5,932 12.5 -35.2°
